Terminal Aerodrome Forecast
Issued by NWS Portland, OR

Home | Current Version | Previous Version | Text Only | Print | Product List | Glossary On
Versions: 1 2 3 4 5 6 7 8 9 10 11 12 13 14 15 16 17 18 19 20 21 22 23 24 25 26 27 28 29 30 31 32 33 34 35 36 37 38 39 40 41 42 43 44 45 46
000
FTUS46 KPQR 261604 AAB
TAFSLE
TAF AMD
KSLE 261604Z 2616/2712 16006KT P6SM BKN050
     FM261800 18006KT P6SM SCT050 BKN150
     FM262000 19007KT P6SM SCT080 BKN150
     FM271100 16011KT P6SM -RA BKN040 OVC080=

USA.gov is the U.S. government's official web portal to all federal, state and local government web resources and services.